EW2817 Weather Reports


Display with metric or nautical units.
time (UTC)temp
F
wind
direction
speed
MPH
gust
MPH
rain 1hr
in
rain 24hr
in
rain mn
in
humidity
%
barometer
mb
20260503213725 64 0 0.0 0.0 0.00 0.00 0.00 35 992.5
20260503212225 64 0 0.0 0.0 0.00 0.00 0.00 38 992.6
20260503210722 64 0 0.0 0.0 0.00 0.00 0.00 36 992.7
20260503205219 64 0 0.0 0.0 0.00 0.00 0.00 38 992.8
20260503202217 65 0 0.0 0.0 0.00 0.00 0.00 38 993.0
20260503200717 64 0 0.0 0.0 0.00 0.00 0.00 36 993.1
20260503195213 65 0 0.0 0.0 0.00 0.00 0.00 36 993.3
20260503192208 65 0 0.0 0.0 0.00 0.00 0.00 37 993.6
20260503190708 65 0 0.0 0.0 0.00 0.00 0.00 36 993.8
20260503185207 66 0 0.0 0.0 0.00 0.00 0.00 34 994.0
20260503183704 66 0 0.0 0.0 0.00 0.00 0.00 37 994.1
20260503182205 66 0 0.0 0.0 0.00 0.00 0.00 35 994.3
20260503180702 66 0 0.0 0.0 0.00 0.00 0.00 33 994.5
20260503175203 66 0 0.0 0.0 0.00 0.00 0.00 35 994.4
20260503173701 65 0 0.0 0.0 0.00 0.00 0.00 35 994.7
20260503172156 66 0 0.0 0.0 0.00 0.00 0.00 36 994.8
20260503170654 64 0 0.0 0.0 0.00 0.00 0.00 39 995.1
20260503130643 47 0 0.0 0.0 0.00 0.00 0.00 77 995.6
20260503080617 43 0 0.0 0.0 0.00 0.00 0.00 84 992.3
20260503070611 44 0 0.0 0.0 0.00 0.00 0.00 85 991.7
20260503055104 44 0 0.0 0.0 0.00 0.00 0.00 89 991.4
20260503053602 44 0 0.0 0.0 0.00 0.00 0.00 90 991.5
20260503052100 45 0 0.0 0.0 0.00 0.00 0.00 89 991.5
20260503050559 45 0 0.0 0.0 0.00 0.00 0.00 89 991.4
20260503045059 45 0 0.0 0.0 0.00 0.00 0.00 89 991.4
20260503043557 45 0 0.0 0.0 0.00 0.00 0.00 88 991.4
20260503042056 46 0 0.0 0.0 0.00 0.00 0.00 88 991.2
20260503040556 46 0 0.0 0.0 0.00 0.00 0.00 89 991.2
20260503035054 47 0 0.0 0.0 0.00 0.00 0.00 89 991.1
20260503033554 47 0 0.0 0.0 0.00 0.00 0.00 89 991.0
20260503030550 48 0 0.0 0.0 0.00 0.00 0.00 88 990.8
20260503025049 49 0 0.0 0.0 0.00 0.00 0.00 87 990.7
20260503023550 49 0 0.0 0.0 0.00 0.00 0.00 86 990.5
20260503022050 49 0 0.0 0.0 0.00 0.00 0.00 86 990.4
20260503020548 50 0 0.0 0.0 0.00 0.00 0.00 86 990.4
20260503015046 50 0 0.0 0.0 0.00 0.00 0.00 85 990.2
20260503013545 51 0 0.0 0.0 0.00 0.00 0.00 86 990.0
20260503012045 51 0 0.0 0.0 0.00 0.00 0.00 85 989.7
20260503003542 53 0 0.0 0.0 0.00 0.00 0.00 83 989.6
20260503002041 54 0 0.0 0.0 0.00 0.00 0.00 81 989.4
20260503000539 55 0 0.0 0.0 0.00 0.00 0.00 78 989.1
20260502235040 56 0 0.0 0.0 0.00 0.00 0.00 77 988.8
20260502233539 56 0 0.0 0.0 0.00 0.00 0.00 77 988.5
20260502230539 57 0 0.0 0.0 0.00 0.00 0.00 74 988.2
20260502225037 57 0 0.0 0.0 0.00 0.00 0.00 72 988.2
20260502223537 58 0 0.0 0.0 0.00 0.00 0.00 67 988.1
20260502222035 58 0 0.0 0.0 0.00 0.00 0.00 66 988.1
20260502220535 58 0 0.0 0.0 0.00 0.00 0.00 66 988.0
20260502215033 58 0 0.0 0.0 0.00 0.00 0.00 69 988.0